| time (UTC) | temp F | wind direction | speed MPH | gust MPH | rain 1hr in | rain 24hr in | rain mn in | humidity % | barometer mb |
| 20260904141104 | 80 | 290 | 0.0 | 2.0 | 0.00 | 0.03 | 0.00 | 86 | 1009.0 |
| 20260904140522 | 80 | 290 | 0.0 | 2.0 | 0.00 | 0.03 | 0.00 | 87 | 1009.0 |
| 20260904140109 | 79 | 290 | 0.0 | 3.0 | 0.00 | 0.03 | 0.00 | 88 | 1009.0 |
| 20260904135535 | 79 | 313 | 0.0 | 3.0 | 0.00 | 0.03 | 0.00 | 90 | 1009.1 |
| 20260904135053 | 78 | 309 | 0.0 | 4.0 | 0.00 | 0.03 | 0.00 | 91 | 1009.2 |
| 20260904134530 | 78 | 309 | 1.0 | 4.0 | 0.00 | 0.03 | 0.00 | 91 | 1009.2 |
| 20260904134109 | 77 | 309 | 1.0 | 4.0 | 0.00 | 0.03 | 0.00 | 91 | 1009.1 |
| 20260904133520 | 77 | 319 | 1.0 | 4.0 | 0.00 | 0.03 | 0.00 | 93 | 1009.2 |
| 20260904133059 | 76 | 320 | 1.0 | 4.0 | 0.00 | 0.03 | 0.00 | 94 | 1009.3 |
| 20260904132509 | 76 | 309 | 0.0 | 2.0 | 0.00 | 0.03 | 0.00 | 96 | 1009.3 |
| 20260904132030 | 75 | 310 | 0.0 | 2.0 | 0.00 | 0.03 | 0.00 | 96 | 1009.2 |
| 20260904131502 | 75 | 310 | 0.0 | 3.0 | 0.00 | 0.03 | 0.00 | 97 | 1009.0 |
| 20260904131043 | 75 | 310 | 1.0 | 3.0 | 0.00 | 0.03 | 0.00 | 97 | 1008.9 |
| 20260904130601 | 75 | 188 | 0.0 | 1.0 | 0.00 | 0.03 | 0.00 | 98 | 1009.0 |
| 20260904130018 | 74 | 188 | 0.0 | 2.0 | 0.00 | 0.03 | 0.00 | 98 | 1009.0 |
| 20260904125555 | 74 | 188 | 0.0 | 2.0 | 0.00 | 0.03 | 0.00 | 98 | 1008.9 |
| 20260904125019 | 74 | 188 | 0.0 | 1.0 | 0.00 | 0.03 | 0.00 | 98 | 1008.8 |
| 20260904124502 | 73 | 188 | 0.0 | 0.0 | 0.00 | 0.03 | 0.00 | 98 | 1008.9 |
| 20260904124022 | 73 | 188 | 0.0 | 0.0 | 0.00 | 0.03 | 0.00 | 98 | 1008.7 |
| 20260904123546 | 72 | 188 | 0.0 | 0.0 | 0.00 | 0.03 | 0.00 | 98 | 1008.8 |
| 20260904123014 | 72 | 188 | 0.0 | 0.0 | 0.00 | 0.03 | 0.00 | 98 | 1008.7 |
| 20260904122536 | 71 | 188 | 0.0 | 0.0 | 0.00 | 0.03 | 0.00 | 98 | 1008.6 |
| 20260904122102 | 71 | 188 | 0.0 | 0.0 | 0.00 | 0.03 | 0.00 | 98 | 1008.6 |
| 20260904121529 | 70 | 188 | 0.0 | 0.0 | 0.00 | 0.03 | 0.00 | 97 | 1008.4 |
| 20260904121049 | 70 | 188 | 0.0 | 0.0 | 0.00 | 0.03 | 0.00 | 97 | 1008.4 |
| 20260904120502 | 70 | 188 | 0.0 | 0.0 | 0.00 | 0.03 | 0.00 | 97 | 1008.4 |
| 20260904120050 | 70 | 188 | 0.0 | 0.0 | 0.00 | 0.03 | 0.00 | 96 | 1008.3 |
| 20260904115515 | 70 | 188 | 0.0 | 0.0 | 0.00 | 0.03 | 0.00 | 96 | 1008.3 |
| 20260904115042 | 70 | 188 | 0.0 | 0.0 | 0.00 | 0.03 | 0.00 | 96 | 1008.2 |
| 20260904114502 | 71 | 188 | 0.0 | 0.0 | 0.00 | 0.03 | 0.00 | 96 | 1008.2 |
| 20260904114024 | 71 | 188 | 0.0 | 0.0 | 0.00 | 0.03 | 0.00 | 96 | 1008.1 |
| 20260904113601 | 71 | 188 | 0.0 | 0.0 | 0.00 | 0.03 | 0.00 | 96 | 1008.1 |
| 20260904113011 | 71 | 188 | 0.0 | 0.0 | 0.00 | 0.03 | 0.00 | 97 | 1008.1 |
| 20260904112530 | 71 | 188 | 0.0 | 0.0 | 0.00 | 0.03 | 0.00 | 96 | 1008.0 |
| 20260904112051 | 71 | 188 | 0.0 | 0.0 | 0.00 | 0.03 | 0.00 | 97 | 1008.1 |
| 20260904111503 | 72 | 188 | 0.0 | 0.0 | 0.00 | 0.03 | 0.00 | 97 | 1008.1 |
| 20260904111036 | 72 | 188 | 0.0 | 0.0 | 0.00 | 0.03 | 0.00 | 97 | 1008.0 |
| 20260904110605 | 72 | 188 | 0.0 | 0.0 | 0.00 | 0.03 | 0.00 | 97 | 1008.2 |
| 20260904110030 | 72 | 188 | 0.0 | 0.0 | 0.00 | 0.03 | 0.00 | 97 | 1008.1 |
| 20260904105601 | 72 | 188 | 0.0 | 0.0 | 0.00 | 0.03 | 0.00 | 96 | 1008.1 |
| 20260904105011 | 72 | 188 | 0.0 | 0.0 | 0.00 | 0.03 | 0.00 | 97 | 1008.1 |
| 20260904104545 | 72 | 188 | 0.0 | 0.0 | 0.00 | 0.03 | 0.00 | 97 | 1008.1 |
| 20260904104020 | 72 | 182 | 0.0 | 0.0 | 0.00 | 0.03 | 0.00 | 96 | 1008.0 |
| 20260904103555 | 72 | 182 | 0.0 | 0.0 | 0.00 | 0.03 | 0.00 | 97 | 1007.9 |
| 20260904103018 | 71 | 182 | 0.0 | 0.0 | 0.00 | 0.03 | 0.00 | 97 | 1008.0 |
| 20260904102536 | 72 | 182 | 0.0 | 0.0 | 0.00 | 0.03 | 0.00 | 96 | 1008.1 |
| 20260904102054 | 72 | 182 | 0.0 | 0.0 | 0.00 | 0.03 | 0.00 | 96 | 1008.0 |
| 20260904101505 | 72 | 182 | 0.0 | 0.0 | 0.00 | 0.03 | 0.00 | 96 | 1008.0 |
| 20260904101048 | 72 | 182 | 0.0 | 0.0 | 0.00 | 0.03 | 0.00 | 97 | 1008.0 |
| 20260904100523 | 72 | 182 | 0.0 | 0.0 | 0.00 | 0.03 | 0.00 | 97 | 1007.9 |
| 20260904100110 | 72 | 182 | 0.0 | 0.0 | 0.00 | 0.03 | 0.00 | 97 | 1007.8 |
| 20260904095521 | 71 | 182 | 0.0 | 0.0 | 0.00 | 0.03 | 0.00 | 96 | 1007.8 |
| 20260904095038 | 71 | 182 | 0.0 | 0.0 | 0.00 | 0.03 | 0.00 | 96 | 1007.9 |
| 20260904094530 | 71 | 182 | 0.0 | 0.0 | 0.00 | 0.03 | 0.00 | 96 | 1007.9 |
| 20260904094034 | 71 | 182 | 0.0 | 0.0 | 0.00 | 0.03 | 0.00 | 96 | 1007.8 |
| 20260904093603 | 71 | 182 | 0.0 | 0.0 | 0.00 | 0.03 | 0.00 | 96 | 1007.8 |
| 20260904093017 | 72 | 182 | 0.0 | 0.0 | 0.00 | 0.03 | 0.00 | 96 | 1007.7 |
| 20260904092535 | 72 | 182 | 0.0 | 0.0 | 0.00 | 0.03 | 0.00 | 96 | 1007.7 |
| 20260904092101 | 72 | 182 | 0.0 | 0.0 | 0.00 | 0.03 | 0.00 | 96 | 1007.7 |
| 20260904091515 | 72 | 182 | 0.0 | 0.0 | 0.00 | 0.03 | 0.00 | 96 | 1007.6 |
| 20260904091053 | 72 | 182 | 0.0 | 0.0 | 0.00 | 0.03 | 0.00 | 96 | 1007.6 |
| 20260904090529 | 72 | 182 | 0.0 | 0.0 | 0.00 | 0.03 | 0.00 | 96 | 1007.6 |
| 20260904090105 | 72 | 182 | 0.0 | 0.0 | 0.00 | 0.03 | 0.00 | 95 | 1007.7 |
| 20260904085512 | 72 | 182 | 0.0 | 0.0 | 0.00 | 0.03 | 0.00 | 95 | 1007.6 |
| 20260904085035 | 72 | 182 | 0.0 | 0.0 | 0.00 | 0.03 | 0.00 | 95 | 1007.6 |
| 20260904084601 | 72 | 182 | 0.0 | 0.0 | 0.00 | 0.03 | 0.00 | 95 | 1007.6 |
| 20260904084029 | 72 | 182 | 0.0 | 0.0 | 0.00 | 0.03 | 0.00 | 95 | 1007.6 |
| 20260904083559 | 72 | 182 | 0.0 | 0.0 | 0.00 | 0.03 | 0.00 | 95 | 1007.5 |
| 20260904083105 | 72 | 182 | 0.0 | 0.0 | 0.00 | 0.03 | 0.00 | 95 | 1007.4 |
| 20260904082511 | 72 | 182 | 0.0 | 0.0 | 0.00 | 0.03 | 0.00 | 95 | 1007.4 |
| 20260904082055 | 72 | 182 | 0.0 | 0.0 | 0.00 | 0.03 | 0.00 | 95 | 1007.5 |
| 20260904081533 | 72 | 182 | 0.0 | 0.0 | 0.00 | 0.03 | 0.00 | 94 | 1007.4 |
| 20260904081011 | 72 | 182 | 0.0 | 0.0 | 0.00 | 0.03 | 0.00 | 94 | 1007.4 |
| 20260904080536 | 72 | 182 | 0.0 | 0.0 | 0.00 | 0.03 | 0.00 | 95 | 1007.3 |
| 20260904080009 | 72 | 182 | 0.0 | 0.0 | 0.00 | 0.03 | 0.00 | 94 | 1007.4 |
| 20260904075556 | 73 | 182 | 0.0 | 0.0 | 0.00 | 0.03 | 0.00 | 94 | 1007.4 |
| 20260904075012 | 73 | 182 | 0.0 | 0.0 | 0.00 | 0.03 | 0.00 | 94 | 1007.3 |
| 20260904074538 | 73 | 182 | 0.0 | 0.0 | 0.00 | 0.03 | 0.00 | 94 | 1007.3 |
| 20260904074107 | 73 | 182 | 0.0 | 0.0 | 0.00 | 0.03 | 0.00 | 94 | 1007.3 |
| 20260904073542 | 73 | 182 | 0.0 | 0.0 | 0.00 | 0.03 | 0.00 | 94 | 1007.3 |
| 20260904073002 | 73 | 182 | 0.0 | 0.0 | 0.00 | 0.03 | 0.00 | 93 | 1007.4 |
| 20260904072522 | 73 | 182 | 0.0 | 0.0 | 0.00 | 0.03 | 0.00 | 93 | 1007.4 |
| 20260904072007 | 74 | 182 | 0.0 | 0.0 | 0.00 | 0.03 | 0.00 | 93 | 1007.4 |
| 20260904071501 | 74 | 182 | 0.0 | 0.0 | 0.00 | 0.03 | 0.00 | 93 | 1007.4 |
| 20260904071027 | 74 | 182 | 0.0 | 0.0 | 0.00 | 0.03 | 0.00 | 93 | 1007.3 |
| 20260904070506 | 74 | 182 | 0.0 | 0.0 | 0.00 | 0.03 | 0.00 | 93 | 1007.4 |
| 20260904070159 | 74 | 182 | 0.0 | 0.0 | 0.00 | 0.03 | 0.00 | 93 | 1007.4 |
| 20260904065609 | 74 | 182 | 0.0 | 1.0 | 0.00 | 0.03 | 0.00 | 93 | 1007.4 |
| 20260904065046 | 75 | 182 | 0.0 | 1.0 | 0.00 | 0.03 | 0.00 | 93 | 1007.5 |
| 20260904064541 | 75 | 182 | 0.0 | 0.0 | 0.00 | 0.03 | 0.00 | 93 | 1007.4 |
| 20260904064019 | 75 | 182 | 0.0 | 0.0 | 0.00 | 0.03 | 0.00 | 93 | 1007.4 |
| 20260904063543 | 75 | 182 | 0.0 | 0.0 | 0.00 | 0.03 | 0.00 | 92 | 1007.5 |
| 20260904063027 | 75 | 182 | 0.0 | 0.0 | 0.00 | 0.03 | 0.00 | 92 | 1007.5 |
| 20260904062536 | 75 | 182 | 0.0 | 0.0 | 0.00 | 0.03 | 0.00 | 92 | 1007.4 |
| 20260904062055 | 75 | 182 | 0.0 | 0.0 | 0.00 | 0.03 | 0.00 | 92 | 1007.5 |
| 20260904061528 | 75 | 182 | 0.0 | 0.0 | 0.00 | 0.03 | 0.00 | 92 | 1007.5 |
| 20260904061050 | 76 | 182 | 0.0 | 0.0 | 0.00 | 0.03 | 0.00 | 92 | 1007.5 |
| 20260904060506 | 76 | 182 | 0.0 | 2.0 | 0.00 | 0.03 | 0.00 | 92 | 1007.5 |
| 20260904060045 | 76 | 182 | 0.0 | 2.0 | 0.00 | 0.03 | 0.00 | 92 | 1007.5 |
| 20260904055518 | 76 | 182 | 0.0 | 0.0 | 0.00 | 0.03 | 0.00 | 92 | 1007.5 |
| 20260904055007 | 76 | 182 | 0.0 | 0.0 | 0.00 | 0.03 | 0.00 | 92 | 1007.5 |
| 20260904054546 | 76 | 182 | 0.0 | 0.0 | 0.00 | 0.03 | 0.00 | 92 | 1007.6 |
| 20260904054056 | 76 | 182 | 0.0 | 0.0 | 0.00 | 0.03 | 0.00 | 92 | 1007.5 |
| 20260904053535 | 76 | 182 | 0.0 | 0.0 | 0.00 | 0.03 | 0.00 | 92 | 1007.4 |
| 20260904053012 | 76 | 182 | 0.0 | 2.0 | 0.00 | 0.03 | 0.00 | 92 | 1007.5 |
| 20260904052544 | 76 | 182 | 0.0 | 2.0 | 0.00 | 0.03 | 0.00 | 92 | 1007.4 |
| 20260904052020 | 75 | 182 | 0.0 | 2.0 | 0.00 | 0.03 | 0.00 | 92 | 1007.3 |
| 20260904051543 | 75 | 182 | 0.0 | 1.0 | 0.00 | 0.03 | 0.00 | 92 | 1007.4 |
| 20260904051100 | 75 | 182 | 0.0 | 2.0 | 0.00 | 0.03 | 0.00 | 92 | 1007.4 |
| 20260904050534 | 75 | 181 | 0.0 | 2.0 | 0.00 | 0.03 | 0.00 | 92 | 1007.3 |
| 20260904050057 | 75 | 181 | 0.0 | 0.0 | 0.00 | 0.03 | 0.00 | 91 | 1007.3 |
| 20260904045521 | 75 | 181 | 0.0 | 0.0 | 0.00 | 0.03 | 0.03 | 91 | 1007.3 |
| 20260904045048 | 76 | 181 | 0.0 | 0.0 | 0.00 | 0.03 | 0.03 | 91 | 1007.2 |
| 20260904044609 | 76 | 181 | 0.0 | 1.0 | 0.00 | 0.03 | 0.03 | 91 | 1007.3 |
| 20260904044032 | 76 | 181 | 0.0 | 3.0 | 0.00 | 0.03 | 0.03 | 90 | 1007.2 |
| 20260904043605 | 76 | 181 | 0.0 | 3.0 | 0.00 | 0.03 | 0.03 | 90 | 1007.3 |
| 20260904043037 | 76 | 188 | 0.0 | 2.0 | 0.00 | 0.03 | 0.03 | 90 | 1007.3 |
| 20260904042555 | 76 | 188 | 0.0 | 2.0 | 0.00 | 0.03 | 0.03 | 90 | 1007.3 |
| 20260904042001 | 76 | 188 | 0.0 | 2.0 | 0.00 | 0.03 | 0.03 | 90 | 1007.2 |
| 20260904041546 | 76 | 188 | 0.0 | 1.0 | 0.00 | 0.03 | 0.03 | 89 | 1007.2 |
| 20260904041108 | 76 | 188 | 0.0 | 2.0 | 0.00 | 0.03 | 0.03 | 89 | 1007.2 |
| 20260904040516 | 77 | 188 | 0.0 | 2.0 | 0.00 | 0.03 | 0.03 | 89 | 1007.3 |
| 20260904040109 | 77 | 188 | 0.0 | 1.0 | 0.00 | 0.03 | 0.03 | 88 | 1007.3 |
| 20260904035536 | 77 | 188 | 0.0 | 1.0 | 0.00 | 0.03 | 0.03 | 88 | 1007.3 |
| 20260904035057 | 77 | 188 | 0.0 | 0.0 | 0.00 | 0.03 | 0.03 | 88 | 1007.3 |
| 20260904034503 | 77 | 188 | 0.0 | 1.0 | 0.00 | 0.03 | 0.03 | 87 | 1007.3 |
| 20260904034039 | 78 | 188 | 0.0 | 1.0 | 0.00 | 0.03 | 0.03 | 87 | 1007.2 |
| 20260904033608 | 78 | 188 | 0.0 | 1.0 | 0.00 | 0.03 | 0.03 | 87 | 1007.3 |
| 20260904033018 | 78 | 188 | 0.0 | 2.0 | 0.00 | 0.03 | 0.03 | 87 | 1007.3 |
| 20260904032537 | 78 | 188 | 0.0 | 2.0 | 0.00 | 0.03 | 0.03 | 87 | 1007.3 |
| 20260904032057 | 78 | 184 | 0.0 | 2.0 | 0.00 | 0.03 | 0.03 | 86 | 1007.3 |
| 20260904031531 | 78 | 184 | 0.0 | 2.0 | 0.00 | 0.03 | 0.03 | 86 | 1007.4 |
| 20260904031052 | 78 | 184 | 0.0 | 2.0 | 0.00 | 0.03 | 0.03 | 86 | 1007.4 |
| 20260904030502 | 78 | 186 | 0.0 | 1.0 | 0.00 | 0.03 | 0.03 | 86 | 1007.3 |
| 20260904030037 | 78 | 186 | 0.0 | 2.0 | 0.00 | 0.03 | 0.03 | 86 | 1007.3 |
| 20260904025503 | 78 | 186 | 0.0 | 2.0 | 0.00 | 0.03 | 0.03 | 85 | 1007.4 |
| 20260904025040 | 78 | 186 | 0.0 | 1.0 | 0.00 | 0.03 | 0.03 | 85 | 1007.3 |
| 20260904024600 | 78 | 186 | 0.0 | 1.0 | 0.00 | 0.03 | 0.03 | 85 | 1007.3 |
| 20260904024009 | 78 | 186 | 0.0 | 1.0 | 0.00 | 0.03 | 0.03 | 85 | 1007.3 |
| 20260904023555 | 79 | 186 | 0.0 | 1.0 | 0.00 | 0.03 | 0.03 | 84 | 1007.2 |
| 20260904023004 | 79 | 186 | 0.0 | 2.0 | 0.00 | 0.03 | 0.03 | 84 | 1007.1 |
| 20260904022525 | 79 | 186 | 0.0 | 2.0 | 0.00 | 0.03 | 0.03 | 84 | 1007.1 |
| 20260904022104 | 79 | 186 | 0.0 | 2.0 | 0.00 | 0.03 | 0.03 | 84 | 1007.2 |
| 20260904021522 | 79 | 186 | 0.0 | 3.0 | 0.00 | 0.03 | 0.03 | 83 | 1007.1 |
| 20260904021033 | 79 | 186 | 0.0 | 3.0 | 0.00 | 0.03 | 0.03 | 83 | 1007.2 |
| 20260904020508 | 79 | 188 | 0.0 | 2.0 | 0.00 | 0.03 | 0.03 | 83 | 1007.1 |
| 20260904020028 | 79 | 196 | 0.0 | 2.0 | 0.00 | 0.03 | 0.03 | 83 | 1007.1 |
| 20260904015547 | 79 | 213 | 0.0 | 3.0 | 0.00 | 0.03 | 0.03 | 82 | 1007.0 |
| 20260904015022 | 79 | 219 | 0.0 | 3.0 | 0.00 | 0.03 | 0.03 | 82 | 1006.9 |
| 20260904014542 | 80 | 194 | 0.0 | 3.0 | 0.00 | 0.03 | 0.03 | 82 | 1007.0 |
| 20260904014104 | 80 | 194 | 1.0 | 3.0 | 0.00 | 0.03 | 0.03 | 82 | 1007.0 |
| 20260904013526 | 80 | 167 | 0.0 | 2.0 | 0.00 | 0.03 | 0.03 | 81 | 1007.0 |
| 20260904013057 | 80 | 165 | 0.0 | 2.0 | 0.00 | 0.03 | 0.03 | 81 | 1007.0 |
| 20260904012550 | 80 | 165 | 0.0 | 3.0 | 0.00 | 0.03 | 0.03 | 81 | 1006.9 |
| 20260904012110 | 80 | 164 | 0.0 | 3.0 | 0.00 | 0.03 | 0.03 | 80 | 1006.8 |
| 20260904011546 | 81 | 166 | 0.0 | 3.0 | 0.00 | 0.03 | 0.03 | 80 | 1006.7 |
| 20260904011104 | 81 | 162 | 0.0 | 3.0 | 0.00 | 0.03 | 0.03 | 79 | 1006.7 |
| 20260904010624 | 81 | 162 | 2.0 | 5.0 | 0.00 | 0.03 | 0.03 | 79 | 1006.6 |
| 20260904010034 | 81 | 154 | 0.0 | 5.0 | 0.00 | 0.03 | 0.03 | 78 | 1006.7 |
| 20260904005556 | 82 | 202 | 1.0 | 4.0 | 0.00 | 0.03 | 0.03 | 78 | 1006.5 |
| 20260904005044 | 82 | 205 | 0.0 | 4.0 | 0.00 | 0.03 | 0.03 | 78 | 1006.6 |
| 20260904004522 | 82 | 168 | 1.0 | 4.0 | 0.00 | 0.03 | 0.03 | 77 | 1006.6 |
| 20260904004045 | 82 | 166 | 1.0 | 4.0 | 0.00 | 0.03 | 0.03 | 77 | 1006.6 |
| 20260904003519 | 83 | 171 | 1.0 | 5.0 | 0.00 | 0.03 | 0.03 | 76 | 1006.6 |
| 20260904003058 | 83 | 180 | 0.0 | 3.0 | 0.00 | 0.03 | 0.03 | 76 | 1006.6 |
| 20260904002508 | 83 | 175 | 1.0 | 3.0 | 0.00 | 0.03 | 0.03 | 75 | 1006.7 |
| 20260904002034 | 83 | 177 | 1.0 | 3.0 | 0.00 | 0.03 | 0.03 | 75 | 1006.7 |
| 20260904001501 | 84 | 161 | 1.0 | 7.0 | 0.00 | 0.03 | 0.03 | 74 | 1006.7 |
| 20260904001023 | 84 | 186 | 1.0 | 5.0 | 0.00 | 0.03 | 0.03 | 74 | 1006.6 |
| 20260904000010 | 85 | 171 | 1.0 | 6.0 | 0.00 | 0.03 | 0.03 | 72 | 1006.7 |
| 20260903235551 | 85 | 171 | 2.0 | 6.0 | 0.00 | 0.03 | 0.03 | 71 | 1006.7 |
| 20260903235001 | 85 | 253 | 0.0 | 6.0 | 0.00 | 0.03 | 0.03 | 71 | 1006.7 |
| 20260903234522 | 86 | 229 | 1.0 | 6.0 | 0.00 | 0.03 | 0.03 | 70 | 1006.7 |
| 20260903234106 | 86 | 207 | 1.0 | 5.0 | 0.00 | 0.03 | 0.03 | 70 | 1006.7 |
| 20260903233515 | 86 | 244 | 1.0 | 6.0 | 0.00 | 0.03 | 0.03 | 69 | 1006.8 |
| 20260903233034 | 86 | 224 | 1.0 | 7.0 | 0.00 | 0.03 | 0.03 | 69 | 1006.7 |
| 20260903232559 | 86 | 155 | 2.0 | 7.0 | 0.00 | 0.03 | 0.03 | 69 | 1006.6 |
| 20260903232034 | 86 | 297 | 1.0 | 10.0 | 0.00 | 0.03 | 0.03 | 69 | 1006.6 |
| 20260903231503 | 86 | 202 | 3.0 | 10.0 | 0.00 | 0.03 | 0.03 | 68 | 1006.4 |
| 20260903231058 | 86 | 211 | 2.0 | 8.0 | 0.00 | 0.03 | 0.03 | 69 | 1006.3 |
| 20260903230519 | 86 | 167 | 3.0 | 8.0 | 0.00 | 0.03 | 0.03 | 69 | 1006.1 |
| 20260903230051 | 86 | 286 | 3.0 | 8.0 | 0.00 | 0.03 | 0.03 | 68 | 1006.2 |
| 20260903225517 | 86 | 169 | 3.0 | 8.0 | 0.00 | 0.03 | 0.03 | 68 | 1005.9 |
| 20260903225035 | 87 | 285 | 3.0 | 11.0 | 0.00 | 0.03 | 0.03 | 68 | 1006.0 |
| 20260903224501 | 87 | 287 | 2.0 | 11.0 | 0.00 | 0.03 | 0.03 | 67 | 1006.0 |
| 20260903224035 | 87 | 173 | 3.0 | 8.0 | 0.00 | 0.03 | 0.03 | 67 | 1005.9 |
| 20260903223514 | 87 | 201 | 3.0 | 7.0 | 0.00 | 0.03 | 0.03 | 66 | 1005.9 |
| 20260903223058 | 87 | 136 | 4.0 | 8.0 | 0.00 | 0.03 | 0.03 | 65 | 1006.1 |
| 20260903222532 | 87 | 285 | 3.0 | 8.0 | 0.00 | 0.03 | 0.03 | 66 | 1006.0 |
| 20260903222101 | 87 | 221 | 3.0 | 9.0 | 0.00 | 0.03 | 0.03 | 65 | 1006.1 |
| 20260903221527 | 87 | 244 | 3.0 | 8.0 | 0.00 | 0.03 | 0.03 | 65 | 1006.2 |
| 20260903221050 | 87 | 255 | 2.0 | 7.0 | 0.00 | 0.03 | 0.03 | 65 | 1006.2 |
| 20260903220520 | 87 | 254 | 2.0 | 10.0 | 0.00 | 0.03 | 0.03 | 67 | 1006.1 |
| 20260903220048 | 87 | 171 | 4.0 | 8.0 | 0.00 | 0.03 | 0.03 | 66 | 1006.1 |
| 20260903215526 | 87 | 239 | 4.0 | 9.0 | 0.00 | 0.03 | 0.03 | 65 | 1006.3 |
| 20260903215004 | 87 | 228 | 3.0 | 10.0 | 0.00 | 0.03 | 0.03 | 65 | 1006.3 |
| 20260903214529 | 87 | 221 | 4.0 | 10.0 | 0.00 | 0.03 | 0.03 | 64 | 1006.3 |
| 20260903214044 | 87 | 161 | 3.0 | 8.0 | 0.00 | 0.03 | 0.03 | 66 | 1006.4 |
| 20260903213607 | 87 | 203 | 3.0 | 8.0 | 0.00 | 0.03 | 0.03 | 66 | 1006.5 |
| 20260903213041 | 87 | 239 | 3.0 | 9.0 | 0.00 | 0.03 | 0.03 | 68 | 1006.6 |
| 20260903212534 | 87 | 157 | 4.0 | 9.0 | 0.00 | 0.03 | 0.03 | 67 | 1006.5 |
| 20260903212102 | 87 | 175 | 2.0 | 9.0 | 0.00 | 0.03 | 0.03 | 67 | 1006.5 |
| 20260903211537 | 87 | 338 | 2.0 | 9.0 | 0.00 | 0.03 | 0.03 | 67 | 1006.6 |
| 20260903211107 | 87 | 163 | 4.0 | 10.0 | 0.00 | 0.03 | 0.03 | 67 | 1006.6 |
| 20260903210547 | 86 | 145 | 3.0 | 10.0 | 0.00 | 0.03 | 0.03 | 69 | 1006.4 |
| 20260903210025 | 85 | 204 | 3.0 | 8.0 | 0.00 | 0.03 | 0.03 | 69 | 1006.5 |
| 20260903205549 | 84 | 324 | 2.0 | 6.0 | 0.00 | 0.03 | 0.03 | 71 | 1006.6 |
| 20260903205028 | 84 | 277 | 3.0 | 7.0 | 0.00 | 0.03 | 0.03 | 70 | 1006.8 |
| 20260903204602 | 84 | 216 | 3.0 | 7.0 | 0.00 | 0.03 | 0.03 | 70 | 1007.1 |
| 20260903204014 | 84 | 194 | 2.0 | 8.0 | 0.00 | 0.03 | 0.03 | 70 | 1007.1 |
| 20260903203557 | 84 | 234 | 3.0 | 8.0 | 0.00 | 0.03 | 0.03 | 68 | 1007.1 |
| 20260903203039 | 85 | 166 | 2.0 | 8.0 | 0.01 | 0.03 | 0.03 | 67 | 1006.9 |
| 20260903202515 | 85 | 188 | 2.0 | 7.0 | 0.01 | 0.03 | 0.03 | 68 | 1007.0 |
| 20260903202007 | 85 | 178 | 3.0 | 7.0 | 0.01 | 0.03 | 0.03 | 66 | 1007.1 |
| 20260903201544 | 85 | 221 | 2.0 | 7.0 | 0.01 | 0.03 | 0.03 | 66 | 1007.0 |
| 20260903201014 | 86 | 236 | 3.0 | 9.0 | 0.01 | 0.03 | 0.03 | 66 | 1006.9 |
| 20260903200501 | 86 | 221 | 3.0 | 11.0 | 0.01 | 0.03 | 0.03 | 66 | 1007.1 |
| 20260903200039 | 86 | 235 | 3.0 | 11.0 | 0.01 | 0.03 | 0.03 | 65 | 1007.2 |
| 20260903195505 | 86 | 148 | 3.0 | 14.0 | 0.01 | 0.03 | 0.03 | 67 | 1007.3 |
| 20260903195102 | 86 | 228 | 4.0 | 14.0 | 0.01 | 0.03 | 0.03 | 67 | 1007.1 |
| 20260903194541 | 86 | 161 | 3.0 | 9.0 | 0.01 | 0.03 | 0.03 | 66 | 1007.3 |
| 20260903194030 | 87 | 209 | 4.0 | 9.0 | 0.01 | 0.03 | 0.03 | 65 | 1007.6 |
| 20260903193523 | 87 | 184 | 2.0 | 12.0 | 0.00 | 0.02 | 0.02 | 67 | 1007.6 |
| 20260903193016 | 87 | 261 | 5.0 | 12.0 | 0.00 | 0.02 | 0.02 | 67 | 1007.4 |
| 20260903192605 | 87 | 173 | 3.0 | 11.0 | 0.00 | 0.02 | 0.02 | 65 | 1007.4 |
| 20260903192038 | 87 | 295 | 4.0 | 11.0 | 0.00 | 0.02 | 0.02 | 66 | 1007.3 |
| 20260903191510 | 87 | 143 | 3.0 | 9.0 | 0.00 | 0.02 | 0.02 | 68 | 1007.3 |
| 20260903191017 | 86 | 167 | 3.0 | 7.0 | 0.00 | 0.02 | 0.02 | 68 | 1007.4 |
| 20260903190504 | 86 | 167 | 3.0 | 10.0 | 0.01 | 0.02 | 0.02 | 72 | 1007.5 |
| 20260903190100 | 85 | 319 | 3.0 | 10.0 | 0.01 | 0.02 | 0.02 | 71 | 1007.6 |
| 20260903185551 | 85 | 293 | 2.0 | 9.0 | 0.01 | 0.02 | 0.02 | 74 | 1007.6 |
| 20260903185109 | 84 | 275 | 2.0 | 9.0 | 0.01 | 0.02 | 0.02 | 73 | 1007.6 |
| 20260903184543 | 83 | 229 | 1.0 | 8.0 | 0.01 | 0.02 | 0.02 | 78 | 1007.6 |
| 20260903184018 | 82 | 255 | 2.0 | 8.0 | 0.01 | 0.02 | 0.02 | 80 | 1007.6 |
| 20260903183603 | 81 | 274 | 2.0 | 8.0 | 0.01 | 0.02 | 0.02 | 82 | 1007.6 |
| 20260903183038 | 80 | 298 | 2.0 | 7.0 | 0.01 | 0.02 | 0.02 | 86 | 1007.7 |
| 20260903182526 | 79 | 194 | 0.0 | 5.0 | 0.01 | 0.02 | 0.02 | 93 | 1007.7 |
| 20260903182008 | 78 | 270 | 2.0 | 5.0 | 0.01 | 0.02 | 0.02 | 91 | 1007.6 |
| 20260903181555 | 77 | 243 | 2.0 | 5.0 | 0.01 | 0.02 | 0.02 | 92 | 1007.7 |
| 20260903181031 | 77 | 240 | 1.0 | 4.0 | 0.01 | 0.02 | 0.02 | 92 | 1007.8 |
| 20260903180529 | 76 | 176 | 1.0 | 3.0 | 0.00 | 0.01 | 0.01 | 90 | 1007.9 |
| 20260903180045 | 77 | 151 | 0.0 | 2.0 | 0.00 | 0.01 | 0.01 | 91 | 1008.2 |
| 20260903175604 | 77 | 153 | 0.0 | 2.0 | 0.01 | 0.01 | 0.01 | 91 | 1008.3 |
| 20260903175012 | 77 | 154 | 0.0 | 6.0 | 0.01 | 0.01 | 0.01 | 90 | 1007.9 |
| 20260903174539 | 77 | 156 | 1.0 | 6.0 | 0.01 | 0.01 | 0.01 | 89 | 1007.7 |
| 20260903174118 | 77 | 150 | 2.0 | 5.0 | 0.01 | 0.01 | 0.01 | 88 | 1007.5 |
| 20260903173526 | 77 | 175 | 2.0 | 5.0 | 0.01 | 0.01 | 0.01 | 87 | 1007.9 |
| 20260903173001 | 77 | 157 | 1.0 | 5.0 | 0.01 | 0.01 | 0.01 | 88 | 1007.9 |
| 20260903172521 | 77 | 146 | 2.0 | 7.0 | 0.01 | 0.01 | 0.01 | 90 | 1007.9 |
| 20260903172041 | 77 | 178 | 2.0 | 7.0 | 0.01 | 0.01 | 0.01 | 91 | 1008.0 |
| 20260903171600 | 76 | 144 | 1.0 | 4.0 | 0.01 | 0.01 | 0.01 | 92 | 1008.1 |
| 20260903171124 | 75 | 157 | 1.0 | 4.0 | 0.01 | 0.01 | 0.01 | 91 | 1008.2 |
| 20260903170524 | 75 | 174 | 1.0 | 5.0 | 0.01 | 0.01 | 0.01 | 90 | 1008.4 |
| 20260903170052 | 75 | 161 | 1.0 | 3.0 | 0.01 | 0.01 | 0.01 | 89 | 1008.5 |
| 20260903165517 | 76 | 153 | 0.0 | 3.0 | 0.00 | 0.00 | 0.00 | 89 | 1008.9 |
| 20260903165039 | 76 | 149 | 1.0 | 5.0 | 0.00 | 0.00 | 0.00 | 88 | 1008.7 |
| 20260903164533 | 76 | 212 | 2.0 | 5.0 | 0.00 | 0.00 | 0.00 | 88 | 1008.5 |
| 20260903164053 | 76 | 175 | 1.0 | 3.0 | 0.00 | 0.00 | 0.00 | 87 | 1008.5 |
| 20260903163502 | 76 | 171 | 1.0 | 4.0 | 0.00 | 0.00 | 0.00 | 86 | 1008.6 |
| 20260903163047 | 77 | 157 | 1.0 | 4.0 | 0.00 | 0.00 | 0.00 | 85 | 1008.7 |
| 20260903162609 | 76 | 211 | 0.0 | 4.0 | 0.00 | 0.00 | 0.00 | 85 | 1008.7 |
| 20260903162020 | 77 | 193 | 2.0 | 4.0 | 0.00 | 0.00 | 0.00 | 85 | 1008.4 |
| 20260903161604 | 77 | 192 | 0.0 | 4.0 | 0.00 | 0.00 | 0.00 | 85 | 1008.5 |
| 20260903161011 | 77 | 296 | 2.0 | 5.0 | 0.00 | 0.00 | 0.00 | 85 | 1008.6 |
| 20260903160531 | 77 | 216 | 1.0 | 4.0 | 0.00 | 0.00 | 0.00 | 86 | 1008.7 |
| 20260903160006 | 76 | 178 | 1.0 | 5.0 | 0.00 | 0.01 | 0.00 | 87 | 1008.7 |
| 20260903155548 | 76 | 187 | 0.0 | 5.0 | 0.00 | 0.01 | 0.00 | 89 | 1008.7 |
| 20260903155015 | 75 | 161 | 1.0 | 3.0 | 0.00 | 0.01 | 0.00 | 89 | 1008.7 |
| 20260903154547 | 75 | 151 | 1.0 | 5.0 | 0.00 | 0.01 | 0.00 | 89 | 1008.5 |
| 20260903154102 | 74 | 150 | 0.0 | 5.0 | 0.00 | 0.01 | 0.00 | 89 | 1008.6 |
| 20260903153537 | 74 | 157 | 1.0 | 5.0 | 0.00 | 0.01 | 0.00 | 89 | 1008.5 |
| 20260903153011 | 74 | 153 | 1.0 | 5.0 | 0.00 | 0.01 | 0.00 | 88 | 1008.4 |
| 20260903152531 | 74 | 157 | 0.0 | 5.0 | 0.00 | 0.01 | 0.00 | 88 | 1008.6 |
| 20260903152054 | 74 | 138 | 1.0 | 4.0 | 0.00 | 0.01 | 0.00 | 87 | 1008.6 |
| 20260903151501 | 74 | 160 | 0.0 | 5.0 | 0.00 | 0.01 | 0.00 | 87 | 1008.7 |
| 20260903151036 | 75 | 164 | 1.0 | 5.0 | 0.00 | 0.01 | 0.00 | 85 | 1008.7 |
| 20260903150605 | 75 | 165 | 2.0 | 5.0 | 0.00 | 0.01 | 0.00 | 84 | 1008.7 |
| 20260903150057 | 75 | 186 | 2.0 | 4.0 | 0.00 | 0.01 | 0.00 | 82 | 1008.7 |
| 20260903145520 | 76 | 184 | 1.0 | 5.0 | 0.00 | 0.01 | 0.00 | 81 | 1008.5 |
| 20260903145055 | 76 | 148 | 1.0 | 4.0 | 0.00 | 0.01 | 0.00 | 80 | 1008.6 |
| 20260903144529 | 77 | 191 | 1.0 | 7.0 | 0.00 | 0.01 | 0.00 | 80 | 1008.6 |
| 20260903144051 | 77 | 159 | 2.0 | 5.0 | 0.00 | 0.01 | 0.00 | 80 | 1008.5 |
| 20260903143610 | 77 | 171 | 3.0 | 6.0 | 0.00 | 0.01 | 0.00 | 80 | 1008.4 |
| 20260903143054 | 77 | 188 | 1.0 | 4.0 | 0.00 | 0.01 | 0.00 | 81 | 1008.4 |
| 20260903142509 | 76 | 205 | 1.0 | 5.0 | 0.00 | 0.01 | 0.00 | 82 | 1008.4 |
| 20260903142037 | 76 | 165 | 1.0 | 5.0 | 0.00 | 0.01 | 0.00 | 81 | 1008.4 |
| 20260903141556 | 76 | 167 | 1.0 | 3.0 | 0.00 | 0.01 | 0.00 | 80 | 1008.5 |